DW8587 Weather Reports


Display with metric or nautical units.
time (UTC)temp
F
wind
direction
speed
MPH
gust
MPH
rain 1hr
in
rain 24hr
in
rain mn
in
humidity
%
barometer
mb
20260902034511 69 350 2.0 5.0 0.00 0.00 0.00 85 1016.9
20260902033010 69 5 2.0 5.0 0.00 0.00 0.00 85 1017.1
20260902031526 69 39 2.0 6.0 0.00 0.00 0.00 85 1017.1
20260902030008 69 34 2.0 3.0 0.00 0.00 0.00 85 1017.0
20260902024507 69 348 2.0 5.0 0.00 0.00 0.00 85 1017.0
20260902023014 69 9 2.0 4.0 0.00 0.00 0.00 85 1017.1
20260902021507 70 40 3.0 4.0 0.00 0.00 0.00 84 1017.0
20260902020005 70 23 2.0 3.0 0.00 0.00 0.00 84 1016.9
20260902014502 70 36 2.0 5.0 0.00 0.00 0.00 84 1016.9
20260902013002 71 36 2.0 4.0 0.00 0.00 0.00 83 1016.9
20260902011501 71 35 2.0 5.0 0.00 0.00 0.00 83 1016.9
20260902010105 71 34 3.0 5.0 0.00 0.00 0.00 83 1016.9
20260902004559 71 36 3.0 5.0 0.00 0.00 0.00 83 1017.0
20260902003058 71 40 1.0 5.0 0.00 0.00 0.00 83 1017.0
20260902001603 71 355 3.0 4.0 0.00 0.00 0.00 82 1017.0
20260902000057 71 342 2.0 4.0 0.00 0.00 0.00 82 1017.0
20260901234604 72 37 4.0 6.0 0.00 0.00 0.00 82 1017.1
20260901233053 72 35 2.0 5.0 0.00 0.00 0.00 81 1016.9
20260901231557 72 40 2.0 4.0 0.00 0.00 0.00 80 1017.0
20260901230104 73 39 4.0 6.0 0.00 0.00 0.00 80 1017.0
20260901224551 73 40 3.0 5.0 0.00 0.00 0.00 80 1017.0
20260901223050 73 346 3.0 4.0 0.00 0.00 0.00 80 1017.0
20260901221604 72 28 2.0 3.0 0.00 0.00 0.00 81 1017.0
20260901220046 72 5 2.0 5.0 0.00 0.00 0.00 81 1016.8
20260901214545 72 23 3.0 5.0 0.00 0.00 0.00 81 1016.8
20260901213051 72 24 3.0 5.0 0.00 0.00 0.00 81 1016.9
20260901211545 73 42 2.0 4.0 0.00 0.00 0.00 81 1016.8
20260901210044 73 42 2.0 4.0 0.00 0.00 0.00 80 1016.8
20260901204544 74 38 3.0 5.0 0.00 0.00 0.00 79 1016.8
20260901203046 74 42 2.0 5.0 0.00 0.00 0.00 78 1016.7
20260901201548 74 40 2.0 4.0 0.00 0.00 0.00 77 1016.7
20260901200041 75 44 3.0 5.0 0.00 0.00 0.00 77 1016.6
20260901194541 75 37 0.0 0.0 0.00 0.00 0.00 76 1016.6
20260901193040 76 37 1.0 4.0 0.00 0.00 0.00 76 1016.3
20260901191543 76 44 4.0 6.0 0.00 0.00 0.00 75 1016.2
20260901190040 77 39 3.0 5.0 0.00 0.00 0.00 73 1016.0
20260901184539 78 40 2.0 3.0 0.00 0.00 0.00 72 1015.8
20260901183059 79 40 2.0 4.0 0.00 0.00 0.00 70 1015.7
20260901181539 80 49 2.0 3.0 0.00 0.00 0.00 68 1015.6
20260901180038 81 114 0.0 0.0 0.00 0.00 0.00 66 1015.5
20260901174537 81 114 0.0 0.0 0.00 0.00 0.00 64 1015.5
20260901173049 82 114 0.0 2.0 0.00 0.00 0.00 62 1015.3
20260901171549 82 114 1.0 3.0 0.00 0.00 0.00 61 1015.1
20260901170047 83 89 1.0 3.0 0.00 0.00 0.00 61 1015.2
20260901164535 83 72 2.0 6.0 0.00 0.00 0.00 60 1015.3
20260901163051 84 96 3.0 5.0 0.00 0.00 0.00 58 1015.3
20260901161541 84 44 3.0 6.0 0.00 0.00 0.00 56 1015.3
20260901160038 85 49 2.0 4.0 0.00 0.00 0.00 56 1015.3
20260901154534 85 78 3.0 7.0 0.00 0.00 0.00 56 1015.4
20260901153033 85 194 4.0 9.0 0.00 0.00 0.00 53 1015.4
20260901151539 84 155 4.0 8.0 0.00 0.00 0.00 55 1015.4
20260901150032 85 105 4.0 10.0 0.00 0.00 0.00 54 1015.3
20260901144533 85 178 3.0 7.0 0.00 0.00 0.00 54 1015.6
20260901143029 85 207 1.0 6.0 0.00 0.00 0.00 55 1015.6
20260901141537 84 203 3.0 9.0 0.00 0.00 0.00 54 1015.7
20260901140027 84 137 5.0 9.0 0.00 0.00 0.00 55 1015.7
20260901134526 84 152 3.0 11.0 0.00 0.00 0.00 56 1015.7
20260901133025 83 109 3.0 11.0 0.00 0.00 0.00 57 1015.9
20260901131525 84 178 4.0 9.0 0.00 0.00 0.00 57 1016.1
20260901130023 83 42 2.0 10.0 0.00 0.00 0.00 59 1016.2
20260901124522 83 163 4.0 8.0 0.00 0.00 0.00 58 1016.5
20260901123031 83 32 1.0 6.0 0.00 0.00 0.00 60 1016.6
20260901121521 82 61 1.0 9.0 0.00 0.00 0.00 61 1016.7
20260901120021 82 51 2.0 6.0 0.00 0.00 0.00 62 1016.8
20260901114518 81 118 3.0 9.0 0.00 0.00 0.00 62 1016.9
20260901113018 82 103 2.0 6.0 0.00 0.00 0.00 60 1016.9
20260901111517 80 139 4.0 9.0 0.00 0.00 0.00 62 1017.0
20260901110117 80 136 5.0 9.0 0.00 0.00 0.00 61 1017.1
20260901104515 80 148 3.0 11.0 0.00 0.00 0.00 67 1017.1
20260901103013 80 132 5.0 10.0 0.00 0.00 0.00 67 1017.1
20260901101513 80 223 2.0 6.0 0.00 0.00 0.00 70 1017.2
20260901100006 78 67 0.0 4.0 0.00 0.00 0.00 73 1017.3
20260901094504 78 113 2.0 4.0 0.00 0.00 0.00 74 1017.3
20260901093003 77 89 2.0 7.0 0.00 0.00 0.00 74 1017.3
20260901091501 77 93 3.0 4.0 0.00 0.00 0.00 74 1017.3
20260901084622 76 80 4.0 10.0 0.00 0.00 0.00 75 1017.2
20260901083057 76 71 3.0 8.0 0.00 0.00 0.00 75 1017.2
20260901081556 76 114 3.0 8.0 0.00 0.00 0.00 74 1017.1
20260901080109 77 109 5.0 10.0 0.00 0.00 0.00 72 1017.0
20260901074604 75 52 7.0 14.0 0.00 0.00 0.00 73 1016.7
20260901073050 75 53 3.0 6.0 0.00 0.00 0.00 71 1016.8
20260901071542 74 31 1.0 6.0 0.00 0.00 0.00 71 1016.8
20260901070040 74 124 2.0 9.0 0.00 0.00 0.00 67 1016.8
20260901064539 75 52 3.0 7.0 0.00 0.00 0.00 62 1016.6
20260901063036 74 49 1.0 3.0 0.00 0.00 0.00 58 1016.6
20260901061532 73 49 1.0 5.0 0.00 0.00 0.00 58 1016.4
20260901060037 72 39 2.0 6.0 0.00 0.00 0.00 57 1016.0
20260901054522 71 26 4.0 8.0 0.00 0.00 0.00 57 1015.8
20260901053018 72 30 4.0 9.0 0.00 0.00 0.00 55 1015.6
20260901051515 72 42 6.0 9.0 0.00 0.00 0.00 54 1015.5
20260901050012 71 60 3.0 10.0 0.00 0.00 0.00 56 1015.2
20260901044508 68 32 4.0 6.0 0.00 0.00 0.00 62 1015.0
20260901043008 67 30 2.0 4.0 0.00 0.00 0.00 65 1014.9
20260901041507 67 338 3.0 5.0 0.00 0.00 0.00 66 1014.7
20260901040005 68 24 1.0 3.0 0.00 0.00 0.00 64 1014.5